FW9086 Weather Reports


time (UTC)temp
F
wind
direction
speed
knots
gust
knots
rain 1hr
in
rain 24hr
in
rain mn
in
humidity
%
barometer
mb
20260503213505 61 262 3.5 4.3 0.00 0.00 0.00 51 1009.7
20260503213001 62 250 5.2 6.1 0.00 0.00 0.00 52 1009.6
20260503212459 62 245 2.6 2.6 0.00 0.00 0.00 50 1009.3
20260503211956 62 258 4.3 6.1 0.00 0.00 0.00 53 1009.7
20260503211453 63 249 2.6 5.2 0.00 0.00 0.00 53 1009.7
20260503210948 63 228 1.7 2.6 0.00 0.00 0.00 54 1009.9
20260503210445 61 259 2.6 4.3 0.00 0.00 0.00 58 1010.2
20260503205940 60 225 2.6 2.6 0.00 0.00 0.00 55 1010.2
20260503205437 60 251 0.0 0.0 0.00 0.00 0.00 53 1010.3
20260503204933 60 270 2.6 2.6 0.00 0.00 0.00 51 1010.7
20260503204430 60 251 4.3 5.2 0.00 0.00 0.00 53 1010.4
20260503203927 61 269 1.7 5.2 0.00 0.00 0.00 53 1010.6
20260503203425 62 269 4.3 5.2 0.00 0.00 0.00 55 1010.6
20260503202921 63 251 3.5 4.3 0.00 0.00 0.00 51 1010.8
20260503202420 62 208 1.7 1.7 0.00 0.00 0.00 53 1011.0
20260503201918 60 229 0.0 0.0 0.00 0.00 0.00 54 1011.1
20260503201415 61 236 2.6 2.6 0.00 0.00 0.00 53 1011.6
20260503200912 61 245 3.5 4.3 0.00 0.00 0.00 55 1011.4
20260503200408 62 251 5.2 5.2 0.00 0.00 0.00 49 1011.5
20260503195905 61 243 2.6 2.6 0.00 0.00 0.00 54 1011.5
20260503195402 62 247 4.3 5.2 0.00 0.00 0.00 54 1011.7
20260503194859 61 236 0.0 0.0 0.00 0.00 0.00 55 1012.1
20260503194355 61 203 1.7 1.7 0.00 0.00 0.00 53 1012.2
20260503193851 61 273 4.3 6.1 0.00 0.00 0.00 53 1012.3
20260503193347 60 217 2.6 2.6 0.00 0.00 0.00 52 1012.6
20260503192843 60 205 0.9 1.7 0.00 0.00 0.00 58 1012.8
20260503192339 60 206 1.7 1.7 0.00 0.00 0.00 53 1013.0
20260503191835 60 209 4.3 6.1 0.00 0.00 0.00 53 1012.9
20260503191332 61 257 3.5 4.3 0.00 0.00 0.00 52 1012.8
20260503190829 60 253 4.3 5.2 0.00 0.00 0.00 52 1012.4
20260503190326 59 254 2.6 4.3 0.00 0.00 0.00 55 1012.8
20260503185823 61 285 4.3 7.0 0.00 0.00 0.00 52 1012.6
20260503185319 61 244 4.3 4.3 0.00 0.00 0.00 51 1012.6
20260503184814 61 274 4.3 6.1 0.00 0.00 0.00 54 1012.8
20260503184310 62 251 2.6 2.6 0.00 0.00 0.00 49 1012.5
20260503183806 63 185 0.0 0.9 0.00 0.00 0.00 50 1012.8
20260503183304 63 232 2.6 2.6 0.00 0.00 0.00 49 1012.6
20260503182801 62 241 4.3 5.2 0.00 0.00 0.00 53 1013.0
20260503182300 61 328 0.9 0.9 0.00 0.00 0.00 56 1013.1
20260503181756 60 239 2.6 2.6 0.00 0.00 0.00 53 1013.5
20260503181253 61 234 0.9 1.7 0.00 0.00 0.00 55 1013.4
20260503180749 60 265 5.2 7.0 0.00 0.00 0.00 52 1013.7
20260503180248 60 188 0.0 0.0 0.00 0.00 0.00 52 1013.8
20260503175744 59 235 3.5 4.3 0.00 0.00 0.00 52 1013.8
20260503175242 59 249 4.3 5.2 0.00 0.00 0.00 54 1013.9
20260503174738 60 259 1.7 1.7 0.00 0.00 0.00 55 1014.2
20260503174236 60 246 3.5 4.3 0.00 0.00 0.00 54 1014.4
20260503173736 59 232 4.3 5.2 0.00 0.00 0.00 57 1014.4
20260503173232 59 216 2.6 2.6 0.00 0.00 0.00 53 1014.4
20260503172729 59 235 0.0 0.9 0.00 0.00 0.00 56 1014.5
20260503172227 58 232 0.9 1.7 0.00 0.00 0.00 55 1014.7
20260503171723 57 244 3.5 4.3 0.00 0.00 0.00 52 1014.9
20260503171220 59 260 4.3 6.1 0.00 0.00 0.00 52 1014.8
20260503170717 59 186 2.6 4.3 0.00 0.00 0.00 51 1014.9
20260503170214 58 252 4.3 5.2 0.00 0.00 0.00 53 1015.0
20260503160136 59 252 3.5 4.3 0.00 0.00 0.00 54 1015.6
20260503150606 58 243 0.0 0.0 0.00 0.00 0.00 59 1016.1
20260503130955 48 211 0.0 0.0 0.00 0.00 0.00 64 1016.4
20260503130453 48 247 2.6 4.3 0.00 0.00 0.00 67 1016.3
20260503110349 40 236 0.0 0.0 0.00 0.00 0.00 76 1015.9
20260503090241 36 169 0.0 0.0 0.00 0.00 0.00 94 1015.6
20260503081208 36 151 0.0 0.0 0.00 0.00 0.00 94 1015.6
20260503080704 36 151 0.0 0.0 0.00 0.00 0.00 94 1015.5
20260503080201 36 151 0.0 0.0 0.00 0.00 0.00 94 1015.8
20260503072638 36 151 0.0 0.0 0.00 0.00 0.00 95 1015.6
20260503072135 36 151 0.0 0.0 0.00 0.00 0.00 94 1015.5
20260503071631 36 151 0.0 0.0 0.00 0.00 0.00 94 1015.6
20260503071128 36 151 0.0 0.0 0.00 0.00 0.00 94 1015.8
20260503070625 36 151 0.0 0.0 0.00 0.00 0.00 94 1015.5
20260503070123 36 151 0.0 0.0 0.00 0.00 0.00 94 1015.6
20260503055044 37 153 0.0 0.0 0.00 0.00 0.00 93 1016.2
20260503054539 37 153 0.0 0.0 0.00 0.00 0.00 93 1015.9
20260503054037 37 153 0.0 0.0 0.00 0.00 0.00 93 1016.3
20260503053535 37 153 0.0 0.0 0.00 0.00 0.00 93 1016.1
20260503053032 37 153 0.0 0.0 0.00 0.00 0.00 93 1016.2
20260503052529 37 153 0.0 0.0 0.00 0.00 0.00 93 1016.3
20260503052025 37 154 0.0 0.0 0.00 0.00 0.00 93 1016.2
20260503051521 37 165 0.0 0.0 0.00 0.00 0.00 92 1016.5
20260503051019 37 165 0.0 0.0 0.00 0.00 0.00 92 1016.5
20260503050514 37 165 0.0 0.0 0.00 0.00 0.00 92 1016.1
20260503050012 38 166 0.0 0.0 0.00 0.00 0.00 93 1016.4
20260503045509 38 166 0.0 0.0 0.00 0.00 0.00 93 1016.4
20260503045006 38 166 0.0 0.0 0.00 0.00 0.00 93 1016.3
20260503044503 38 166 0.0 0.0 0.00 0.00 0.00 93 1016.3
20260503044000 38 166 0.0 0.0 0.00 0.00 0.00 92 1016.4
20260503043456 38 166 0.0 0.0 0.00 0.00 0.00 92 1016.5
20260503042953 38 166 0.0 0.0 0.00 0.00 0.00 92 1016.3
20260503042450 38 167 0.0 0.0 0.00 0.00 0.00 92 1016.4
20260503041946 39 168 0.0 0.0 0.00 0.00 0.00 92 1016.4
20260503041443 39 167 0.0 0.0 0.00 0.00 0.00 92 1016.3
20260503040941 39 167 0.0 0.0 0.00 0.00 0.00 91 1016.4
20260503040438 39 169 0.0 0.0 0.00 0.00 0.00 90 1016.4
20260503035935 39 178 0.0 0.0 0.00 0.00 0.00 90 1016.4
20260503035432 39 173 0.0 0.0 0.00 0.00 0.00 89 1016.3
20260503034930 39 173 0.0 0.0 0.00 0.00 0.00 88 1016.3
20260503034427 39 172 0.0 0.0 0.00 0.00 0.00 88 1016.3
20260503033924 39 173 0.0 0.0 0.00 0.00 0.00 87 1016.6
20260503033421 39 173 0.0 0.0 0.00 0.00 0.00 88 1016.2
20260503032919 39 173 0.0 0.0 0.00 0.00 0.00 87 1016.2
20260503032418 39 173 0.0 0.0 0.00 0.00 0.00 87 1016.3
20260503031915 39 181 0.0 0.0 0.00 0.00 0.00 86 1016.3
20260503031412 40 163 0.0 0.0 0.00 0.00 0.00 86 1016.5
20260503030909 40 163 0.0 0.0 0.00 0.00 0.00 85 1016.4
20260503030405 40 163 0.0 0.0 0.00 0.00 0.00 84 1016.5
20260503025902 40 163 0.0 0.0 0.00 0.00 0.00 82 1016.4
20260503025359 40 163 0.0 0.0 0.00 0.00 0.00 83 1016.5
20260503024856 40 163 0.0 0.0 0.00 0.00 0.00 85 1016.6
20260503024353 40 149 0.0 0.0 0.00 0.00 0.00 84 1016.2
20260503023850 40 148 0.0 0.0 0.00 0.00 0.00 84 1016.4
20260503023347 41 166 0.0 0.0 0.00 0.00 0.00 82 1016.4
20260503022843 41 174 0.0 0.0 0.00 0.00 0.00 82 1016.2
20260503022338 41 175 0.0 0.0 0.00 0.00 0.00 82 1016.4
20260503021835 41 160 0.0 0.0 0.00 0.00 0.00 83 1016.1
20260503021331 41 159 0.0 0.0 0.00 0.00 0.00 81 1016.3
20260503020828 41 165 0.0 0.0 0.00 0.00 0.00 79 1016.1
20260503020326 41 172 0.0 0.0 0.00 0.00 0.00 78 1016.1
20260503015822 42 184 0.0 0.0 0.00 0.00 0.00 77 1016.1
20260503015320 42 169 0.0 0.0 0.00 0.00 0.00 78 1016.1
20260503014815 42 149 0.0 0.0 0.00 0.00 0.00 74 1015.9
20260503014313 42 149 0.0 0.0 0.00 0.00 0.00 75 1015.8
20260503013810 42 149 0.0 0.0 0.00 0.00 0.00 73 1015.6
20260503013308 43 149 0.0 0.0 0.00 0.00 0.00 73 1015.8
20260503012804 43 149 0.0 0.0 0.00 0.00 0.00 71 1015.9
20260503012305 43 149 0.0 0.0 0.00 0.00 0.00 67 1015.8
20260503011759 44 148 0.0 0.0 0.00 0.00 0.00 68 1015.9
20260503011255 44 149 0.0 0.0 0.00 0.00 0.00 67 1015.8
20260503010752 44 149 0.0 0.0 0.00 0.00 0.00 64 1015.8
20260503010249 44 150 0.0 0.0 0.00 0.00 0.00 61 1015.6
20260503005746 45 137 0.0 0.0 0.00 0.00 0.00 64 1015.6
20260503005243 45 142 0.0 0.0 0.00 0.00 0.00 59 1015.6
20260503004739 46 142 0.0 0.0 0.00 0.00 0.00 57 1015.7
20260503004238 46 142 0.0 0.0 0.00 0.00 0.00 55 1015.7
20260503003734 47 142 0.0 0.0 0.00 0.00 0.00 55 1015.8
20260503003232 47 142 0.0 0.0 0.00 0.00 0.00 54 1015.6
20260503002728 47 142 0.0 0.0 0.00 0.00 0.00 52 1015.7
20260503002225 47 151 0.0 0.0 0.00 0.00 0.00 50 1015.7
20260503001721 48 160 0.0 0.0 0.00 0.00 0.00 50 1015.4
20260503001218 48 160 0.0 0.0 0.00 0.00 0.00 50 1015.8
20260503000716 48 160 0.0 0.0 0.00 0.00 0.00 49 1015.7
20260503000213 48 173 0.0 0.0 0.00 0.00 0.00 53 1015.5
20260502235710 49 163 0.0 0.0 0.00 0.00 0.00 48 1015.7
20260502235208 49 160 0.0 0.0 0.00 0.00 0.00 48 1015.7
20260502234704 49 158 0.0 0.0 0.00 0.00 0.00 50 1015.7
20260502234201 50 135 0.0 0.0 0.00 0.00 0.00 47 1015.6
20260502233656 50 135 0.0 0.0 0.00 0.00 0.00 44 1015.5
20260502233154 50 130 0.0 0.0 0.00 0.00 0.00 43 1015.5
20260502232649 51 144 0.0 0.0 0.00 0.00 0.00 45 1015.3
20260502232147 51 128 0.0 0.0 0.00 0.00 0.00 45 1015.5
20260502231643 51 121 0.0 0.0 0.00 0.00 0.00 47 1015.6
20260502231141 51 1 0.0 0.0 0.00 0.00 0.00 46 1015.5
20260502230640 51 252 0.0 0.0 0.00 0.00 0.00 48 1015.4
20260502230138 51 119 0.0 0.0 0.00 0.00 0.00 46 1015.6
20260502225633 51 25 0.0 0.0 0.00 0.00 0.00 45 1015.6
20260502225131 51 40 0.0 0.0 0.00 0.00 0.00 45 1015.6
20260502224626 51 145 0.0 0.0 0.00 0.00 0.00 44 1015.5
20260502224123 50 144 0.0 0.0 0.00 0.00 0.00 47 1015.7
20260502223621 50 151 0.0 0.0 0.00 0.00 0.00 49 1015.6
20260502223120 51 144 0.0 0.0 0.00 0.00 0.00 47 1015.5
20260502222617 51 32 0.0 0.9 0.00 0.00 0.00 43 1015.5
20260502222113 52 40 0.0 0.0 0.00 0.00 0.00 42 1015.5
20260502221609 52 120 0.0 0.0 0.00 0.00 0.00 43 1015.4
20260502221106 52 84 0.0 0.9 0.00 0.00 0.00 43 1015.4
20260502220602 52 99 0.0 0.0 0.00 0.00 0.00 42 1015.5
20260502220058 52 133 0.0 0.0 0.00 0.00 0.00 41 1015.5
20260502215555 52 80 0.0 0.0 0.00 0.00 0.00 46 1015.6
20260502215052 52 99 0.0 0.0 0.00 0.00 0.00 42 1015.6
20260502214549 52 42 0.0 0.0 0.00 0.00 0.00 45 1015.4
20260502214047 51 78 0.0 0.0 0.00 0.00 0.00 45 1015.4